| time (UTC) | temp F | wind direction | speed MPH | gust MPH | rain 1hr in | rain 24hr in | rain mn in | humidity % | barometer mb |
| 20260508181238 | 56 | 52 | 0.0 | 0.0 | 0.00 | 0.00 | 0.00 | 62 | 1023.9 |
| 20260508180735 | 57 | 61 | 2.0 | 3.0 | 0.00 | 0.00 | 0.00 | 60 | 1024.3 |
| 20260508180232 | 57 | 56 | 1.0 | 2.0 | 0.00 | 0.00 | 0.00 | 61 | 1024.1 |
| 20260508175728 | 57 | 63 | 1.0 | 1.0 | 0.00 | 0.00 | 0.00 | 61 | 1023.8 |
| 20260508175225 | 56 | 49 | 0.0 | 0.0 | 0.00 | 0.00 | 0.00 | 63 | 1024.0 |
| 20260508174723 | 57 | 24 | 1.0 | 2.0 | 0.00 | 0.00 | 0.00 | 62 | 1023.8 |
| 20260508174220 | 56 | 22 | 1.0 | 1.0 | 0.00 | 0.00 | 0.00 | 62 | 1023.8 |
| 20260508173716 | 56 | 84 | 1.0 | 1.0 | 0.00 | 0.00 | 0.00 | 63 | 1023.6 |
| 20260508173212 | 56 | 15 | 1.0 | 2.0 | 0.00 | 0.00 | 0.00 | 62 | 1023.8 |
| 20260508172710 | 55 | 91 | 0.0 | 1.0 | 0.00 | 0.00 | 0.00 | 63 | 1023.7 |
| 20260508172206 | 55 | 52 | 0.0 | 0.0 | 0.00 | 0.00 | 0.00 | 67 | 1023.4 |
| 20260508171703 | 54 | 53 | 0.0 | 0.0 | 0.00 | 0.00 | 0.00 | 65 | 1023.4 |
| 20260508171159 | 54 | 30 | 0.0 | 0.0 | 0.00 | 0.00 | 0.00 | 67 | 1023.1 |
| 20260508170656 | 54 | 31 | 0.0 | 0.0 | 0.00 | 0.00 | 0.00 | 65 | 1023.3 |
| 20260508170154 | 55 | 50 | 0.0 | 0.0 | 0.00 | 0.00 | 0.00 | 63 | 1023.1 |
| 20260508165651 | 54 | 48 | 0.0 | 0.0 | 0.00 | 0.00 | 0.00 | 64 | 1022.9 |
| 20260508165148 | 53 | 36 | 0.0 | 0.0 | 0.00 | 0.00 | 0.00 | 65 | 1023.0 |
| 20260508164644 | 53 | 50 | 0.0 | 1.0 | 0.00 | 0.00 | 0.00 | 65 | 1023.0 |
| 20260508164141 | 54 | 56 | 0.0 | 0.0 | 0.00 | 0.00 | 0.00 | 65 | 1022.9 |
| 20260508163639 | 54 | 47 | 0.0 | 0.0 | 0.00 | 0.00 | 0.00 | 66 | 1023.0 |
| 20260508163136 | 54 | 47 | 0.0 | 0.0 | 0.00 | 0.00 | 0.00 | 66 | 1022.9 |
| 20260508162631 | 54 | 49 | 0.0 | 1.0 | 0.00 | 0.00 | 0.00 | 64 | 1022.9 |
| 20260508162129 | 54 | 49 | 0.0 | 0.0 | 0.00 | 0.00 | 0.00 | 64 | 1022.7 |
| 20260508161626 | 53 | 50 | 0.0 | 0.0 | 0.00 | 0.00 | 0.00 | 65 | 1023.0 |
| 20260508161123 | 54 | 46 | 0.0 | 0.0 | 0.00 | 0.00 | 0.00 | 65 | 1022.9 |
| 20260508160622 | 54 | 45 | 0.0 | 0.0 | 0.00 | 0.00 | 0.00 | 68 | 1022.9 |
| 20260508160119 | 53 | 53 | 0.0 | 0.0 | 0.00 | 0.00 | 0.00 | 69 | 1022.6 |
| 20260508155616 | 53 | 52 | 0.0 | 0.0 | 0.00 | 0.00 | 0.00 | 69 | 1022.9 |
| 20260508155112 | 52 | 50 | 0.0 | 0.0 | 0.00 | 0.00 | 0.00 | 68 | 1023.1 |
| 20260508154609 | 51 | 49 | 0.0 | 0.0 | 0.00 | 0.00 | 0.00 | 72 | 1022.6 |
| 20260508154106 | 51 | 49 | 0.0 | 0.0 | 0.00 | 0.00 | 0.00 | 72 | 1022.4 |
| 20260508153603 | 51 | 49 | 0.0 | 0.0 | 0.00 | 0.00 | 0.00 | 72 | 1022.6 |
| 20260508153100 | 51 | 26 | 0.0 | 0.0 | 0.00 | 0.00 | 0.00 | 73 | 1022.2 |
| 20260508152557 | 51 | 26 | 0.0 | 0.0 | 0.00 | 0.00 | 0.00 | 74 | 1022.4 |
| 20260508152052 | 51 | 25 | 0.0 | 0.0 | 0.00 | 0.00 | 0.00 | 73 | 1022.2 |
| 20260508151549 | 51 | 26 | 0.0 | 0.0 | 0.00 | 0.00 | 0.00 | 72 | 1022.2 |
| 20260508151046 | 50 | 26 | 0.0 | 0.0 | 0.00 | 0.00 | 0.00 | 72 | 1022.1 |
| 20260508150543 | 50 | 25 | 0.0 | 0.0 | 0.00 | 0.00 | 0.00 | 72 | 1022.3 |
| 20260508150038 | 50 | 25 | 0.0 | 0.0 | 0.00 | 0.00 | 0.00 | 74 | 1022.1 |
| 20260508145536 | 50 | 25 | 0.0 | 0.0 | 0.00 | 0.00 | 0.00 | 74 | 1022.0 |
| 20260508145032 | 50 | 25 | 0.0 | 0.0 | 0.00 | 0.00 | 0.00 | 75 | 1021.9 |
| 20260508144530 | 50 | 25 | 0.0 | 0.0 | 0.00 | 0.00 | 0.00 | 78 | 1021.9 |
| 20260508144027 | 50 | 25 | 0.0 | 0.0 | 0.00 | 0.00 | 0.00 | 75 | 1021.8 |
| 20260508143525 | 50 | 25 | 0.0 | 0.0 | 0.00 | 0.00 | 0.00 | 72 | 1021.9 |
| 20260508143021 | 50 | 25 | 0.0 | 0.0 | 0.00 | 0.00 | 0.00 | 74 | 1022.1 |
| 20260508142518 | 50 | 25 | 0.0 | 0.0 | 0.00 | 0.00 | 0.00 | 73 | 1022.1 |
| 20260508142014 | 50 | 48 | 0.0 | 0.0 | 0.00 | 0.00 | 0.00 | 73 | 1022.1 |
| 20260508141511 | 49 | 41 | 0.0 | 0.0 | 0.00 | 0.00 | 0.00 | 74 | 1022.2 |
| 20260508141009 | 49 | 39 | 0.0 | 0.0 | 0.00 | 0.00 | 0.00 | 73 | 1021.9 |
| 20260508140506 | 49 | 53 | 0.0 | 0.0 | 0.00 | 0.00 | 0.00 | 72 | 1022.4 |
| 20260508140001 | 49 | 41 | 0.0 | 0.0 | 0.00 | 0.00 | 0.00 | 74 | 1022.1 |
| 20260508135458 | 49 | 41 | 0.0 | 0.0 | 0.00 | 0.00 | 0.00 | 73 | 1022.0 |
| 20260508134954 | 49 | 42 | 0.0 | 0.0 | 0.00 | 0.00 | 0.00 | 75 | 1021.9 |
| 20260508134451 | 49 | 34 | 0.0 | 0.0 | 0.00 | 0.00 | 0.00 | 74 | 1022.0 |
| 20260508133947 | 48 | 45 | 0.0 | 0.0 | 0.00 | 0.00 | 0.00 | 77 | 1021.9 |
| 20260508133445 | 48 | 44 | 0.0 | 0.0 | 0.00 | 0.00 | 0.00 | 79 | 1022.0 |
| 20260508132942 | 48 | 44 | 0.0 | 0.0 | 0.00 | 0.00 | 0.00 | 79 | 1021.7 |
| 20260508132440 | 48 | 44 | 0.0 | 0.0 | 0.00 | 0.00 | 0.00 | 78 | 1021.5 |
| 20260508131936 | 48 | 44 | 0.0 | 0.0 | 0.00 | 0.00 | 0.00 | 77 | 1021.3 |
| 20260508131432 | 48 | 45 | 0.0 | 0.0 | 0.00 | 0.00 | 0.00 | 77 | 1021.5 |
| 20260508130929 | 48 | 45 | 0.0 | 0.0 | 0.00 | 0.00 | 0.00 | 77 | 1021.2 |
| 20260508130426 | 48 | 45 | 0.0 | 0.0 | 0.00 | 0.00 | 0.00 | 75 | 1021.7 |
| 20260508125921 | 48 | 44 | 0.0 | 0.0 | 0.00 | 0.00 | 0.00 | 77 | 1021.1 |
| 20260508125418 | 48 | 124 | 0.0 | 0.0 | 0.00 | 0.00 | 0.00 | 77 | 1021.3 |
| 20260508124916 | 48 | 124 | 0.0 | 0.0 | 0.00 | 0.00 | 0.00 | 77 | 1021.2 |
| 20260508124413 | 48 | 124 | 0.0 | 0.0 | 0.00 | 0.00 | 0.00 | 76 | 1021.1 |
| 20260508123911 | 48 | 124 | 0.0 | 0.0 | 0.00 | 0.00 | 0.00 | 77 | 1021.2 |
| 20260508123409 | 48 | 124 | 0.0 | 0.0 | 0.00 | 0.00 | 0.00 | 77 | 1021.0 |
| 20260508122905 | 48 | 124 | 0.0 | 0.0 | 0.00 | 0.00 | 0.00 | 78 | 1020.9 |
| 20260508122402 | 48 | 124 | 0.0 | 0.0 | 0.00 | 0.00 | 0.00 | 77 | 1021.0 |
| 20260508121859 | 47 | 124 | 0.0 | 0.0 | 0.00 | 0.00 | 0.00 | 80 | 1020.9 |
| 20260508121358 | 48 | 124 | 0.0 | 0.0 | 0.00 | 0.00 | 0.00 | 80 | 1021.0 |
| 20260508120855 | 48 | 124 | 0.0 | 0.0 | 0.00 | 0.00 | 0.00 | 79 | 1021.0 |
| 20260508120353 | 48 | 124 | 0.0 | 0.0 | 0.00 | 0.00 | 0.00 | 79 | 1020.9 |
| 20260508115850 | 48 | 124 | 0.0 | 0.0 | 0.00 | 0.00 | 0.00 | 78 | 1020.9 |
| 20260508115347 | 48 | 124 | 0.0 | 0.0 | 0.00 | 0.00 | 0.00 | 79 | 1020.8 |
| 20260508114843 | 48 | 124 | 0.0 | 0.0 | 0.00 | 0.00 | 0.00 | 78 | 1021.0 |
| 20260508114341 | 48 | 124 | 0.0 | 0.0 | 0.00 | 0.00 | 0.00 | 77 | 1020.9 |
| 20260508113837 | 48 | 124 | 0.0 | 0.0 | 0.00 | 0.00 | 0.00 | 79 | 1020.7 |
| 20260508113336 | 48 | 124 | 0.0 | 0.0 | 0.00 | 0.00 | 0.00 | 80 | 1020.6 |
| 20260508112832 | 48 | 124 | 0.0 | 0.0 | 0.00 | 0.00 | 0.00 | 80 | 1020.7 |
| 20260508112329 | 48 | 124 | 0.0 | 0.0 | 0.00 | 0.00 | 0.00 | 81 | 1020.6 |
| 20260508111825 | 48 | 124 | 0.0 | 0.0 | 0.00 | 0.00 | 0.00 | 81 | 1020.6 |
| 20260508111323 | 48 | 124 | 0.0 | 0.0 | 0.00 | 0.00 | 0.00 | 82 | 1020.6 |
| 20260508110820 | 47 | 124 | 0.0 | 0.0 | 0.00 | 0.00 | 0.00 | 86 | 1020.4 |
| 20260508110317 | 46 | 124 | 0.0 | 0.0 | 0.00 | 0.00 | 0.00 | 87 | 1020.2 |
| 20260508105817 | 46 | 125 | 0.0 | 0.0 | 0.00 | 0.00 | 0.00 | 88 | 1020.2 |
| 20260508105314 | 46 | 125 | 0.0 | 0.0 | 0.00 | 0.00 | 0.00 | 88 | 1020.1 |
| 20260508104811 | 45 | 125 | 0.0 | 0.0 | 0.00 | 0.00 | 0.00 | 89 | 1020.2 |
| 20260508104308 | 45 | 125 | 0.0 | 0.0 | 0.00 | 0.00 | 0.00 | 88 | 1020.2 |
| 20260508103805 | 45 | 125 | 0.0 | 0.0 | 0.00 | 0.00 | 0.00 | 88 | 1020.1 |
| 20260508103302 | 45 | 125 | 0.0 | 0.0 | 0.00 | 0.00 | 0.00 | 89 | 1019.9 |
| 20260508102759 | 45 | 125 | 0.0 | 0.0 | 0.00 | 0.00 | 0.00 | 89 | 1020.0 |
| 20260508102257 | 45 | 125 | 0.0 | 0.0 | 0.00 | 0.00 | 0.00 | 89 | 1020.0 |
| 20260508101754 | 45 | 125 | 0.0 | 0.0 | 0.00 | 0.00 | 0.00 | 89 | 1019.9 |
| 20260508101252 | 45 | 125 | 0.0 | 0.0 | 0.00 | 0.00 | 0.00 | 88 | 1019.9 |
| 20260508100749 | 45 | 125 | 0.0 | 0.0 | 0.00 | 0.00 | 0.00 | 89 | 1019.6 |
| 20260508100247 | 45 | 125 | 0.0 | 0.0 | 0.00 | 0.00 | 0.00 | 88 | 1019.7 |
| 20260508095743 | 45 | 125 | 0.0 | 0.0 | 0.00 | 0.00 | 0.00 | 88 | 1019.8 |
| 20260508095241 | 45 | 125 | 0.0 | 0.0 | 0.00 | 0.00 | 0.00 | 88 | 1019.7 |
| 20260508094737 | 45 | 125 | 0.0 | 0.0 | 0.00 | 0.00 | 0.00 | 88 | 1019.5 |
| 20260508094235 | 45 | 125 | 0.0 | 0.0 | 0.00 | 0.00 | 0.00 | 88 | 1019.6 |
| 20260508093732 | 45 | 125 | 0.0 | 0.0 | 0.00 | 0.00 | 0.00 | 88 | 1019.6 |
| 20260508093229 | 45 | 125 | 0.0 | 0.0 | 0.00 | 0.00 | 0.00 | 88 | 1019.7 |
| 20260508092726 | 45 | 125 | 0.0 | 0.0 | 0.00 | 0.00 | 0.00 | 88 | 1019.5 |
| 20260508092224 | 45 | 125 | 0.0 | 0.0 | 0.00 | 0.00 | 0.00 | 88 | 1019.5 |
| 20260508091722 | 45 | 125 | 0.0 | 0.0 | 0.00 | 0.00 | 0.00 | 88 | 1019.5 |
| 20260508091218 | 45 | 125 | 0.0 | 0.0 | 0.00 | 0.00 | 0.00 | 89 | 1019.5 |
| 20260508090716 | 45 | 125 | 0.0 | 0.0 | 0.00 | 0.00 | 0.00 | 89 | 1019.3 |
| 20260508090214 | 45 | 125 | 0.0 | 0.0 | 0.00 | 0.00 | 0.00 | 89 | 1019.3 |
| 20260508085709 | 45 | 125 | 0.0 | 0.0 | 0.00 | 0.00 | 0.00 | 88 | 1019.3 |
| 20260508085207 | 45 | 125 | 0.0 | 0.0 | 0.00 | 0.00 | 0.00 | 88 | 1019.3 |
| 20260508084703 | 46 | 125 | 0.0 | 0.0 | 0.00 | 0.00 | 0.00 | 88 | 1019.5 |
| 20260508084201 | 46 | 125 | 0.0 | 0.0 | 0.00 | 0.00 | 0.00 | 88 | 1019.2 |
| 20260508083658 | 46 | 125 | 0.0 | 0.0 | 0.00 | 0.00 | 0.00 | 88 | 1019.2 |
| 20260508083155 | 46 | 125 | 0.0 | 0.0 | 0.00 | 0.00 | 0.00 | 88 | 1019.3 |
| 20260508082650 | 46 | 125 | 0.0 | 0.0 | 0.00 | 0.00 | 0.00 | 88 | 1019.2 |
| 20260508082147 | 46 | 125 | 0.0 | 0.0 | 0.00 | 0.00 | 0.00 | 88 | 1019.2 |
| 20260508081645 | 46 | 125 | 0.0 | 0.0 | 0.00 | 0.00 | 0.00 | 87 | 1019.3 |
| 20260508081141 | 46 | 125 | 0.0 | 0.0 | 0.00 | 0.00 | 0.00 | 87 | 1019.2 |
| 20260508080639 | 46 | 125 | 0.0 | 0.0 | 0.00 | 0.00 | 0.00 | 87 | 1019.3 |
| 20260508080137 | 46 | 125 | 0.0 | 0.0 | 0.00 | 0.00 | 0.00 | 87 | 1019.3 |
| 20260508075633 | 47 | 125 | 0.0 | 0.0 | 0.00 | 0.00 | 0.00 | 87 | 1019.2 |
| 20260508075130 | 47 | 125 | 0.0 | 0.0 | 0.00 | 0.00 | 0.00 | 87 | 1019.2 |
| 20260508074628 | 47 | 125 | 0.0 | 0.0 | 0.00 | 0.00 | 0.00 | 86 | 1019.3 |
| 20260508074124 | 47 | 125 | 0.0 | 0.0 | 0.00 | 0.00 | 0.00 | 86 | 1019.2 |
| 20260508073622 | 47 | 125 | 0.0 | 0.0 | 0.00 | 0.00 | 0.00 | 86 | 1019.2 |
| 20260508073120 | 47 | 125 | 0.0 | 0.0 | 0.00 | 0.00 | 0.00 | 86 | 1019.2 |
| 20260508072614 | 48 | 125 | 0.0 | 0.0 | 0.00 | 0.00 | 0.00 | 86 | 1019.3 |
| 20260508072112 | 48 | 125 | 0.0 | 0.0 | 0.00 | 0.00 | 0.00 | 86 | 1019.1 |
| 20260508071610 | 48 | 125 | 0.0 | 0.0 | 0.00 | 0.00 | 0.00 | 85 | 1018.9 |
| 20260508071108 | 48 | 125 | 0.0 | 0.0 | 0.00 | 0.00 | 0.00 | 86 | 1019.1 |
| 20260508070605 | 48 | 125 | 0.0 | 0.0 | 0.00 | 0.00 | 0.00 | 86 | 1019.1 |
| 20260508070104 | 48 | 125 | 0.0 | 0.0 | 0.00 | 0.00 | 0.00 | 85 | 1019.2 |
| 20260508065600 | 48 | 125 | 0.0 | 0.0 | 0.00 | 0.00 | 0.00 | 85 | 1019.2 |
| 20260508065058 | 48 | 125 | 0.0 | 0.0 | 0.00 | 0.00 | 0.00 | 85 | 1019.1 |
| 20260508064556 | 48 | 125 | 0.0 | 0.0 | 0.00 | 0.00 | 0.00 | 85 | 1019.3 |
| 20260508064054 | 48 | 125 | 0.0 | 0.0 | 0.00 | 0.00 | 0.00 | 85 | 1019.0 |
| 20260508063551 | 48 | 125 | 0.0 | 0.0 | 0.00 | 0.00 | 0.00 | 84 | 1019.1 |
| 20260508063049 | 48 | 125 | 0.0 | 0.0 | 0.00 | 0.00 | 0.00 | 85 | 1019.2 |
| 20260508062546 | 49 | 126 | 0.0 | 0.0 | 0.00 | 0.00 | 0.00 | 84 | 1019.2 |
| 20260508062042 | 49 | 126 | 0.0 | 0.0 | 0.00 | 0.00 | 0.00 | 84 | 1019.1 |
| 20260508061540 | 49 | 126 | 0.0 | 0.0 | 0.00 | 0.00 | 0.00 | 84 | 1019.1 |
| 20260508061037 | 49 | 126 | 0.0 | 0.0 | 0.00 | 0.00 | 0.00 | 84 | 1019.2 |
| 20260508060534 | 49 | 126 | 0.0 | 0.0 | 0.00 | 0.00 | 0.00 | 84 | 1019.4 |
| 20260508060031 | 49 | 126 | 0.0 | 0.0 | 0.00 | 0.00 | 0.00 | 84 | 1019.5 |
| 20260508055527 | 50 | 126 | 0.0 | 0.0 | 0.00 | 0.00 | 0.00 | 84 | 1019.5 |
| 20260508055024 | 50 | 126 | 0.0 | 0.0 | 0.00 | 0.00 | 0.00 | 84 | 1019.2 |
| 20260508054520 | 50 | 126 | 0.0 | 0.0 | 0.00 | 0.00 | 0.00 | 83 | 1019.3 |
| 20260508054018 | 50 | 126 | 0.0 | 0.0 | 0.00 | 0.00 | 0.00 | 83 | 1019.3 |
| 20260508053514 | 50 | 126 | 0.0 | 0.0 | 0.00 | 0.00 | 0.00 | 83 | 1019.5 |
| 20260508053013 | 50 | 126 | 0.0 | 0.0 | 0.00 | 0.00 | 0.00 | 83 | 1019.3 |
| 20260508052509 | 50 | 126 | 0.0 | 0.0 | 0.00 | 0.00 | 0.00 | 82 | 1019.4 |
| 20260508052006 | 51 | 126 | 0.0 | 0.0 | 0.00 | 0.00 | 0.00 | 82 | 1019.5 |
| 20260508051502 | 51 | 126 | 0.0 | 0.0 | 0.00 | 0.00 | 0.00 | 81 | 1019.4 |
| 20260508050957 | 51 | 126 | 0.0 | 0.0 | 0.00 | 0.00 | 0.00 | 81 | 1019.3 |
| 20260508050454 | 51 | 126 | 0.0 | 0.0 | 0.00 | 0.00 | 0.00 | 80 | 1019.4 |
| 20260508045951 | 51 | 126 | 0.0 | 0.0 | 0.00 | 0.00 | 0.00 | 79 | 1019.4 |
| 20260508045448 | 52 | 126 | 0.0 | 0.0 | 0.00 | 0.00 | 0.00 | 80 | 1019.3 |
| 20260508044946 | 52 | 126 | 0.0 | 0.0 | 0.00 | 0.00 | 0.00 | 79 | 1019.2 |
| 20260508044443 | 52 | 126 | 0.0 | 0.0 | 0.00 | 0.00 | 0.00 | 79 | 1019.1 |
| 20260508043938 | 52 | 126 | 0.0 | 0.0 | 0.00 | 0.00 | 0.00 | 78 | 1019.4 |
| 20260508043436 | 53 | 126 | 0.0 | 0.0 | 0.00 | 0.00 | 0.00 | 78 | 1019.3 |
| 20260508042931 | 53 | 126 | 0.0 | 0.0 | 0.00 | 0.00 | 0.00 | 78 | 1019.2 |
| 20260508042430 | 53 | 126 | 0.0 | 0.0 | 0.00 | 0.00 | 0.00 | 78 | 1019.4 |
| 20260508041926 | 53 | 126 | 0.0 | 0.0 | 0.00 | 0.00 | 0.00 | 77 | 1019.3 |
| 20260508041423 | 54 | 126 | 0.0 | 0.0 | 0.00 | 0.00 | 0.00 | 76 | 1019.1 |
| 20260508040920 | 54 | 126 | 0.0 | 0.0 | 0.00 | 0.00 | 0.00 | 76 | 1019.1 |
| 20260508040417 | 54 | 126 | 0.0 | 0.0 | 0.00 | 0.00 | 0.00 | 77 | 1019.0 |
| 20260508035915 | 55 | 126 | 0.0 | 0.0 | 0.00 | 0.00 | 0.00 | 77 | 1019.2 |
| 20260508035411 | 55 | 126 | 0.0 | 0.0 | 0.00 | 0.00 | 0.00 | 78 | 1018.9 |
| 20260508034908 | 55 | 126 | 0.0 | 0.0 | 0.00 | 0.00 | 0.00 | 77 | 1018.9 |
| 20260508034406 | 56 | 126 | 0.0 | 0.0 | 0.00 | 0.00 | 0.00 | 77 | 1018.7 |
| 20260508033902 | 56 | 126 | 0.0 | 0.0 | 0.00 | 0.00 | 0.00 | 77 | 1018.6 |
| 20260508033400 | 57 | 126 | 0.0 | 0.0 | 0.00 | 0.00 | 0.00 | 77 | 1018.7 |
| 20260508032857 | 57 | 126 | 0.0 | 0.0 | 0.00 | 0.00 | 0.00 | 77 | 1018.6 |
| 20260508032349 | 57 | 127 | 0.0 | 0.0 | 0.00 | 0.00 | 0.00 | 76 | 1018.7 |
| 20260508031845 | 58 | 129 | 0.0 | 0.0 | 0.00 | 0.00 | 0.00 | 76 | 1018.5 |
| 20260508031342 | 58 | 129 | 0.0 | 0.0 | 0.00 | 0.00 | 0.00 | 74 | 1018.5 |
| 20260508030838 | 59 | 129 | 0.0 | 0.0 | 0.00 | 0.00 | 0.00 | 75 | 1018.4 |
| 20260508030336 | 59 | 129 | 0.0 | 0.0 | 0.00 | 0.00 | 0.00 | 74 | 1018.3 |
| 20260508025832 | 60 | 129 | 0.0 | 0.0 | 0.00 | 0.00 | 0.00 | 74 | 1018.3 |
| 20260508025329 | 60 | 129 | 0.0 | 0.0 | 0.00 | 0.00 | 0.00 | 72 | 1018.5 |
| 20260508024826 | 60 | 129 | 0.0 | 0.0 | 0.00 | 0.00 | 0.00 | 73 | 1018.5 |
| 20260508024323 | 60 | 129 | 0.0 | 0.0 | 0.00 | 0.00 | 0.00 | 72 | 1018.2 |
| 20260508023820 | 61 | 129 | 0.0 | 0.0 | 0.00 | 0.00 | 0.00 | 73 | 1018.0 |
| 20260508023316 | 62 | 129 | 0.0 | 0.0 | 0.00 | 0.00 | 0.00 | 72 | 1018.3 |
| 20260508022813 | 62 | 129 | 0.0 | 0.0 | 0.00 | 0.00 | 0.00 | 71 | 1018.1 |
| 20260508022309 | 62 | 129 | 0.0 | 0.0 | 0.00 | 0.00 | 0.00 | 71 | 1018.4 |
| 20260508021807 | 63 | 129 | 0.0 | 0.0 | 0.00 | 0.00 | 0.00 | 70 | 1018.3 |
| 20260508021302 | 63 | 129 | 0.0 | 0.0 | 0.00 | 0.00 | 0.00 | 70 | 1018.2 |
| 20260508020758 | 64 | 129 | 0.0 | 0.0 | 0.00 | 0.00 | 0.00 | 68 | 1018.1 |
| 20260508020256 | 64 | 129 | 0.0 | 0.0 | 0.00 | 0.00 | 0.00 | 66 | 1018.4 |
| 20260508015753 | 64 | 129 | 0.0 | 0.0 | 0.00 | 0.00 | 0.00 | 66 | 1018.2 |
| 20260508015250 | 66 | 129 | 0.0 | 0.0 | 0.00 | 0.00 | 0.00 | 65 | 1018.1 |
| 20260508014747 | 66 | 129 | 0.0 | 0.0 | 0.00 | 0.00 | 0.00 | 62 | 1018.1 |
| 20260508014244 | 67 | 129 | 0.0 | 0.0 | 0.00 | 0.00 | 0.00 | 58 | 1018.1 |
| 20260508013740 | 67 | 129 | 0.0 | 0.0 | 0.00 | 0.00 | 0.00 | 59 | 1017.7 |
| 20260508013236 | 67 | 129 | 0.0 | 0.0 | 0.00 | 0.00 | 0.00 | 56 | 1018.1 |
| 20260508012734 | 67 | 129 | 0.0 | 0.0 | 0.00 | 0.00 | 0.00 | 59 | 1018.2 |
| 20260508012231 | 68 | 129 | 0.0 | 0.0 | 0.00 | 0.00 | 0.00 | 57 | 1018.3 |
| 20260508011729 | 68 | 129 | 0.0 | 0.0 | 0.00 | 0.00 | 0.00 | 54 | 1018.2 |
| 20260508011226 | 68 | 129 | 0.0 | 0.0 | 0.00 | 0.00 | 0.00 | 52 | 1018.2 |
| 20260508010722 | 68 | 129 | 0.0 | 0.0 | 0.00 | 0.00 | 0.00 | 53 | 1018.2 |
| 20260508010221 | 68 | 129 | 0.0 | 0.0 | 0.00 | 0.00 | 0.00 | 54 | 1018.5 |
| 20260508005718 | 69 | 129 | 0.0 | 0.0 | 0.00 | 0.00 | 0.00 | 55 | 1018.2 |
| 20260508005215 | 69 | 129 | 0.0 | 0.0 | 0.00 | 0.00 | 0.00 | 52 | 1018.2 |
| 20260508004710 | 69 | 129 | 0.0 | 0.0 | 0.00 | 0.00 | 0.00 | 50 | 1018.5 |
| 20260508004206 | 69 | 129 | 0.0 | 0.0 | 0.00 | 0.00 | 0.00 | 52 | 1018.5 |
| 20260508003703 | 69 | 129 | 0.0 | 0.0 | 0.00 | 0.00 | 0.00 | 52 | 1018.4 |
| 20260508003201 | 69 | 129 | 0.0 | 0.0 | 0.00 | 0.00 | 0.00 | 51 | 1018.3 |
| 20260508002657 | 69 | 129 | 0.0 | 0.0 | 0.00 | 0.00 | 0.00 | 50 | 1018.3 |
| 20260508002155 | 69 | 128 | 0.0 | 0.0 | 0.00 | 0.00 | 0.00 | 50 | 1018.3 |
| 20260508001650 | 69 | 129 | 0.0 | 0.0 | 0.00 | 0.00 | 0.00 | 49 | 1018.6 |
| 20260508001146 | 69 | 129 | 0.0 | 0.0 | 0.00 | 0.00 | 0.00 | 51 | 1018.5 |
| 20260508000642 | 68 | 129 | 0.0 | 0.0 | 0.00 | 0.00 | 0.00 | 49 | 1018.4 |
| 20260508000139 | 69 | 26 | 0.0 | 0.0 | 0.00 | 0.00 | 0.00 | 49 | 1018.5 |
| 20260507235636 | 69 | 30 | 0.0 | 0.0 | 0.00 | 0.00 | 0.00 | 49 | 1018.5 |
| 20260507235133 | 69 | 92 | 1.0 | 1.0 | 0.00 | 0.00 | 0.00 | 49 | 1018.6 |
| 20260507234630 | 69 | 42 | 0.0 | 0.0 | 0.00 | 0.00 | 0.00 | 49 | 1018.5 |
| 20260507234126 | 69 | 75 | 0.0 | 0.0 | 0.00 | 0.00 | 0.00 | 49 | 1018.5 |
| 20260507233623 | 69 | 20 | 0.0 | 1.0 | 0.00 | 0.00 | 0.00 | 51 | 1018.8 |
| 20260507233122 | 69 | 19 | 0.0 | 0.0 | 0.00 | 0.00 | 0.00 | 48 | 1018.7 |
| 20260507232618 | 70 | 19 | 0.0 | 0.0 | 0.00 | 0.00 | 0.00 | 47 | 1019.0 |
| 20260507232116 | 69 | 20 | 0.0 | 0.0 | 0.00 | 0.00 | 0.00 | 48 | 1018.8 |
| 20260507231611 | 69 | 20 | 0.0 | 0.0 | 0.00 | 0.00 | 0.00 | 49 | 1019.0 |
| 20260507231109 | 68 | 19 | 0.0 | 0.0 | 0.00 | 0.00 | 0.00 | 50 | 1019.1 |
| 20260507230605 | 69 | 62 | 1.0 | 2.0 | 0.00 | 0.00 | 0.00 | 52 | 1019.1 |
| 20260507225557 | 69 | 60 | 0.0 | 1.0 | 0.00 | 0.00 | 0.00 | 49 | 1019.2 |
| 20260507225054 | 68 | 61 | 0.0 | 0.0 | 0.00 | 0.00 | 0.00 | 52 | 1019.4 |
| 20260507224549 | 68 | 59 | 0.0 | 0.0 | 0.00 | 0.00 | 0.00 | 51 | 1019.5 |
| 20260507224046 | 68 | 22 | 0.0 | 0.0 | 0.00 | 0.00 | 0.00 | 52 | 1019.5 |
| 20260507223542 | 68 | 22 | 0.0 | 1.0 | 0.00 | 0.00 | 0.00 | 51 | 1019.6 |
| 20260507223040 | 69 | 21 | 0.0 | 0.0 | 0.00 | 0.00 | 0.00 | 51 | 1019.9 |
| 20260507222537 | 68 | 79 | 0.0 | 0.0 | 0.00 | 0.00 | 0.00 | 53 | 1019.7 |
| 20260507222033 | 68 | 82 | 1.0 | 2.0 | 0.00 | 0.00 | 0.00 | 50 | 1019.6 |
| 20260507221529 | 68 | 78 | 0.0 | 1.0 | 0.00 | 0.00 | 0.00 | 51 | 1019.8 |
| 20260507221026 | 68 | 229 | 0.0 | 0.0 | 0.00 | 0.00 | 0.00 | 50 | 1019.8 |
| 20260507220523 | 68 | 58 | 0.0 | 0.0 | 0.00 | 0.00 | 0.00 | 51 | 1020.0 |
| 20260507220021 | 67 | 74 | 0.0 | 1.0 | 0.00 | 0.00 | 0.00 | 51 | 1020.1 |
| 20260507215517 | 67 | 58 | 0.0 | 0.0 | 0.00 | 0.00 | 0.00 | 52 | 1020.1 |
| 20260507215015 | 68 | 56 | 0.0 | 0.0 | 0.00 | 0.00 | 0.00 | 53 | 1020.2 |
| 20260507214512 | 67 | 57 | 0.0 | 0.0 | 0.00 | 0.00 | 0.00 | 51 | 1020.3 |
| 20260507214007 | 67 | 58 | 0.0 | 0.0 | 0.00 | 0.00 | 0.00 | 51 | 1020.5 |
| 20260507213504 | 67 | 82 | 2.0 | 2.0 | 0.00 | 0.00 | 0.00 | 51 | 1020.4 |
| 20260507213001 | 67 | 219 | 0.0 | 0.0 | 0.00 | 0.00 | 0.00 | 53 | 1020.3 |
| 20260507212456 | 66 | 219 | 0.0 | 1.0 | 0.00 | 0.00 | 0.00 | 53 | 1020.3 |
| 20260507211954 | 66 | 77 | 1.0 | 2.0 | 0.00 | 0.00 | 0.00 | 52 | 1020.5 |
| 20260507211450 | 66 | 61 | 0.0 | 0.0 | 0.00 | 0.00 | 0.00 | 52 | 1020.5 |
| 20260507210947 | 64 | 92 | 0.0 | 1.0 | 0.00 | 0.00 | 0.00 | 54 | 1020.5 |
| 20260507210444 | 65 | 16 | 1.0 | 2.0 | 0.00 | 0.00 | 0.00 | 56 | 1020.6 |
| 20260507205941 | 65 | 13 | 0.0 | 0.0 | 0.00 | 0.00 | 0.00 | 52 | 1020.5 |
| 20260507205438 | 67 | 14 | 0.0 | 0.0 | 0.00 | 0.00 | 0.00 | 53 | 1021.0 |
| 20260507204934 | 67 | 67 | 0.0 | 0.0 | 0.00 | 0.00 | 0.00 | 51 | 1020.6 |
| 20260507204430 | 66 | 24 | 0.0 | 0.0 | 0.00 | 0.00 | 0.00 | 51 | 1020.8 |
| 20260507203928 | 66 | 24 | 2.0 | 3.0 | 0.00 | 0.00 | 0.00 | 50 | 1020.7 |
| 20260507203426 | 65 | 23 | 0.0 | 1.0 | 0.00 | 0.00 | 0.00 | 50 | 1020.9 |
| 20260507202922 | 64 | 21 | 0.0 | 0.0 | 0.00 | 0.00 | 0.00 | 51 | 1021.1 |
| 20260507202419 | 65 | 19 | 0.0 | 0.0 | 0.00 | 0.00 | 0.00 | 50 | 1021.1 |
| 20260507201915 | 65 | 18 | 0.0 | 0.0 | 0.00 | 0.00 | 0.00 | 49 | 1021.0 |
| 20260507201410 | 64 | 27 | 0.0 | 1.0 | 0.00 | 0.00 | 0.00 | 50 | 1021.1 |
| 20260507200907 | 65 | 92 | 1.0 | 1.0 | 0.00 | 0.00 | 0.00 | 49 | 1021.2 |
| 20260507200402 | 67 | 23 | 0.0 | 0.0 | 0.00 | 0.00 | 0.00 | 48 | 1021.2 |
| 20260507195858 | 64 | 24 | 0.0 | 0.0 | 0.00 | 0.00 | 0.00 | 48 | 1021.2 |
| 20260507195356 | 64 | 87 | 1.0 | 2.0 | 0.00 | 0.00 | 0.00 | 49 | 1021.3 |
| 20260507194853 | 64 | 13 | 0.0 | 0.0 | 0.00 | 0.00 | 0.00 | 50 | 1021.3 |
| 20260507194349 | 62 | 16 | 0.0 | 0.0 | 0.00 | 0.00 | 0.00 | 53 | 1021.6 |
| 20260507193846 | 64 | 86 | 2.0 | 3.0 | 0.00 | 0.00 | 0.00 | 51 | 1021.6 |
| 20260507193343 | 65 | 26 | 0.0 | 0.0 | 0.00 | 0.00 | 0.00 | 50 | 1021.5 |
| 20260507192839 | 63 | 23 | 0.0 | 0.0 | 0.00 | 0.00 | 0.00 | 50 | 1021.5 |
| 20260507192336 | 62 | 23 | 0.0 | 0.0 | 0.00 | 0.00 | 0.00 | 51 | 1021.4 |
| 20260507191832 | 62 | 79 | 0.0 | 0.0 | 0.00 | 0.00 | 0.00 | 52 | 1021.4 |
| 20260507191328 | 62 | 81 | 1.0 | 1.0 | 0.00 | 0.00 | 0.00 | 52 | 1021.7 |
| 20260507190825 | 62 | 79 | 0.0 | 0.0 | 0.00 | 0.00 | 0.00 | 52 | 1021.7 |
| 20260507190324 | 64 | 82 | 1.0 | 2.0 | 0.00 | 0.00 | 0.00 | 51 | 1021.6 |
| 20260507185822 | 62 | 84 | 0.0 | 0.0 | 0.00 | 0.00 | 0.00 | 55 | 1021.6 |
| 20260507185319 | 61 | 85 | 0.0 | 0.0 | 0.00 | 0.00 | 0.00 | 52 | 1022.0 |
| 20260507184816 | 60 | 86 | 0.0 | 0.0 | 0.00 | 0.00 | 0.00 | 53 | 1022.0 |
| 20260507184314 | 61 | 87 | 0.0 | 0.0 | 0.00 | 0.00 | 0.00 | 53 | 1022.0 |
| 20260507183810 | 60 | 86 | 0.0 | 0.0 | 0.00 | 0.00 | 0.00 | 53 | 1021.9 |
| 20260507183308 | 62 | 161 | 0.0 | 0.0 | 0.00 | 0.00 | 0.00 | 54 | 1022.0 |
| 20260507182805 | 59 | 161 | 0.0 | 0.0 | 0.00 | 0.00 | 0.00 | 55 | 1022.2 |
| 20260507182300 | 60 | 161 | 0.0 | 0.0 | 0.00 | 0.00 | 0.00 | 55 | 1022.1 |
| 20260507181757 | 62 | 25 | 0.0 | 0.0 | 0.00 | 0.00 | 0.00 | 54 | 1022.1 |